sat.trackr.live / text

‹ back to catalog

KUIPER-00063

NORAD 64523 · 2025-134Z

PAYLOAD ACTIVE UNKNOWN

§ Identity

Operator
Country
US
Launch date
2025-06-23
Launch site
AFETR
Launch vehicle
Mass (kg)
RCS (m²)

External: N2YO · Heavens-Above · Gunter

§ Orbital elements

Epoch: 2026-05-24T17:32:38.071680Z

Period
97.30 min
Inclination
51.9017°
Eccentricity
0.0000256
Mean motion
14.79975236 rev/d
Perigee alt
629.2 km
Apogee alt
629.6 km
Semi-major
7,007.5 km
B*
1.1143e-3
RAAN
261.8628°
Arg perigee
96.7066°
Mean anomaly
263.3926°
Rev number
5,126

§ Raw data

KUIPER-000631 64523U 25134Z   26144.73099620  .00008292  00000+0  11143-2 0  99902 64523  51.9017 261.8628 0000256  96.7066 263.3926 14.79975236 51263

JSON: /api/v1/satellites/64523 · /tle

For live sub-satellite position, see the globe view (requires WebGL).

§ Visibility from observer

Set your observer location to see the next 7 days of passes ≥ 10°. The values pass through the URL so the page stays shareable.

No JS? Fill the form by hand. The geolocation button needs JavaScript.